Location: Unspecified
(43.4680°N, 87.1740°E)
Time: 21:21:46
(UTC+00:00)

Cosmos 2322 - Pass Details

Date: 17 April 2021
Orbit: 843 x 852 km, 71.0° (Epoch: 12 May)

Event Time Altitude Azimuth Distance (km) Brightness Sun altitude
Rises 13:33:06 0° 340° (NNW) 3,411 7.5 -7.1°
Reaches altitude 10° 13:35:42 10° 347° (NNW) 2,471 6.7 -7.5°
Maximum altitude 13:41:04 42° 58° (ENE) 1,186 4.3 -8.4°
Enters shadow 13:46:16 11° 128° (SE) 2,416 5.4 -9.3°
